• In Hungary
  • List of Countries
  • For 7 days
  • Water Temperature
  • Satellite Maps
  • Weather Map
  • News
  • Weather Widgets
  • user-avatar
    Login

    Hourly Weather San Pedro de Atacama

    Today, 19 October, Thursday

    Time Temperature Precipitation Wind Pressure Humidity
    00:00 +15°C° 0 mm 1 mps 567 mmHg 17%
    01:00 +14°C° 0 mm 1 mps 567 mmHg 19%
    02:00 +14°C° 0 mm 1 mps 567 mmHg 19%
    03:00 +13°C° 0 mm 1 mps 566 mmHg 19%
    04:00 +13°C° 0 mm 1 mps 565 mmHg 19%
    05:00 +15°C° 0 mm 1 mps 566 mmHg 16%
    06:00 +18°C° 0 mm 1 mps 568 mmHg 13%
    07:00 +20°C° 0 mm 1 mps 569 mmHg 10%
    08:00 +20°C° 0 mm 2 mps 569 mmHg 9%
    09:00 +23°C° 0 mm 2 mps 569 mmHg 7%
    10:00 +25°C° 0 mm 3 mps 569 mmHg 6%
    11:00 +25°C° 0 mm 3 mps 569 mmHg 6%
    12:00 +26°C° 0 mm 4 mps 569 mmHg 5%
    13:00 +27°C° 0 mm 5 mps 568 mmHg 5%
    14:00 +26°C° 0 mm 5 mps 568 mmHg 5%
    15:00 +26°C° 0 mm 5 mps 568 mmHg 6%
    16:00 +24°C° 0 mm 6 mps 567 mmHg 6%
    17:00 +22°C° 0 mm 4 mps 567 mmHg 8%
    18:00 +21°C° 0 mm 3 mps 567 mmHg 9%
    19:00 +20°C° 0 mm 1 mps 567 mmHg 11%
    20:00 +19°C° 0 mm 1 mps 567 mmHg 12%
    21:00 +17°C° 0 mm 2 mps 567 mmHg 12%
    22:00 +16°C° 0 mm 2 mps 567 mmHg 13%
    23:00 +16°C° 0 mm 1 mps 567 mmHg 13%

    Tomorrow, 20 October, Friday

    Time Temperature Precipitation Wind Pressure Humidity
    00:00 +15°C° 0 mm 1 mps 566 mmHg 13%
    01:00 +14°C° 0 mm 1 mps 566 mmHg 13%
    02:00 +13°C° 0 mm 1 mps 565 mmHg 12%
    03:00 +13°C° 0 mm 1 mps 565 mmHg 12%
    04:00 +12°C° 0 mm 1 mps 565 mmHg 12%
    05:00 +14°C° 0 mm 1 mps 566 mmHg 10%
    06:00 +16°C° 0 mm 1 mps 567 mmHg 9%
    07:00 +19°C° 0 mm 1 mps 568 mmHg 7%
    08:00 +19°C° 0 mm 2 mps 569 mmHg 7%
    09:00 +20°C° 0 mm 2 mps 569 mmHg 6%
    10:00 +21°C° 0 mm 3 mps 569 mmHg 5%
    11:00 +22°C° 0 mm 3 mps 569 mmHg 5%
    12:00 +23°C° 0 mm 4 mps 569 mmHg 5%
    13:00 +25°C° 0 mm 4 mps 569 mmHg 5%
    14:00 +23°C° 0 mm 4 mps 568 mmHg 5%
    15:00 +23°C° 0 mm 4 mps 568 mmHg 6%
    16:00 +22°C° 0 mm 4 mps 568 mmHg 6%
    17:00 +21°C° 0 mm 3 mps 568 mmHg 8%
    18:00 +19°C° 0 mm 2 mps 568 mmHg 9%
    19:00 +19°C° 0 mm 1 mps 568 mmHg 11%
    20:00 +18°C° 0 mm 1 mps 568 mmHg 12%
    21:00 +16°C° 0 mm 1 mps 568 mmHg 13%
    22:00 +15°C° 0 mm 1 mps 567 mmHg 14%
    23:00 +14°C° 0 mm 1 mps 567 mmHg 15%

    Day after tomorrow, 21 October, Saturday

    Time Temperature Precipitation Wind Pressure Humidity
    00:00 +13°C° 0 mm 1 mps 566 mmHg 16%
    01:00 +13°C° 0 mm 1 mps 566 mmHg 16%
    02:00 +12°C° 0 mm 1 mps 566 mmHg 16%
    03:00 +12°C° 0 mm 1 mps 565 mmHg 16%
    04:00 +11°C° 0 mm 1 mps 565 mmHg 16%
    05:00 +13°C° 0 mm 1 mps 566 mmHg 14%
    06:00 +15°C° 0 mm 1 mps 567 mmHg 11%
    07:00 +18°C° 0 mm 1 mps 568 mmHg 8%
    08:00 +20°C° 0 mm 1 mps 569 mmHg 7%
    09:00 +20°C° 0 mm 2 mps 569 mmHg 6%
    10:00 +22°C° 0 mm 3 mps 570 mmHg 5%
    11:00 +24°C° 0 mm 3 mps 569 mmHg 5%
    12:00 +25°C° 0 mm 3 mps 569 mmHg 5%
    13:00 +26°C° 0 mm 3 mps 569 mmHg 4%
    14:00 +25°C° 0 mm 4 mps 569 mmHg 5%
    15:00 +25°C° 0 mm 4 mps 568 mmHg 5%
    16:00 +25°C° 0 mm 4 mps 568 mmHg 6%
    17:00 +22°C° 0 mm 3 mps 568 mmHg 7%
    18:00 +20°C° 0 mm 2 mps 568 mmHg 8%
    19:00 +19°C° 0 mm 1 mps 568 mmHg 10%
    20:00 +19°C° 0 mm 1 mps 568 mmHg 11%
    21:00 +18°C° 0 mm 1 mps 568 mmHg 11%
    22:00 +16°C° 0 mm 1 mps 568 mmHg 12%
    23:00 +15°C° 0 mm 1 mps 567 mmHg 13%

    22 October, Sunday

    Time Temperature Precipitation Wind Pressure Humidity
    00:00 +14°C° 0 mm 1 mps 566 mmHg 13%
    01:00 +13°C° 0 mm 1 mps 566 mmHg 14%
    02:00 +13°C° 0 mm 1 mps 565 mmHg 14%
    03:00 +12°C° 0 mm 1 mps 565 mmHg 14%
    04:00 +12°C° 0 mm 1 mps 565 mmHg 14%
    05:00 +14°C° 0 mm 1 mps 566 mmHg 11%
    06:00 +16°C° 0 mm 1 mps 568 mmHg 9%
    07:00 +19°C° 0 mm 1 mps 569 mmHg 6%
    08:00 +21°C° 0 mm 1 mps 569 mmHg 5%
    09:00 +21°C° 0 mm 2 mps 569 mmHg 4%
    10:00 +24°C° 0 mm 3 mps 569 mmHg 4%
    11:00 +25°C° 0 mm 3 mps 569 mmHg 3%
    12:00 +25°C° 0 mm 4 mps 569 mmHg 3%
    13:00 +26°C° 0 mm 4 mps 568 mmHg 3%
    14:00 +26°C° 0 mm 4 mps 568 mmHg 4%
    15:00 +25°C° 0 mm 4 mps 568 mmHg 4%
    16:00 +25°C° 0 mm 3 mps 568 mmHg 5%
    17:00 +22°C° 0 mm 3 mps 568 mmHg 6%
    18:00 +20°C° 0 mm 2 mps 568 mmHg 8%
    19:00 +20°C° 0 mm 1 mps 567 mmHg 10%
    20:00 +19°C° 0 mm 1 mps 568 mmHg 12%
    21:00 +18°C° 0 mm 1 mps 568 mmHg 13%
    22:00 +18°C° 0 mm 1 mps 568 mmHg 15%
    23:00 +16°C° 0 mm 1 mps 567 mmHg 16%

    23 October, Monday

    Time Temperature Precipitation Wind Pressure Humidity
    00:00 +15°C° 0 mm 1 mps 567 mmHg 16%
    01:00 +14°C° 0 mm 1 mps 566 mmHg 17%
    02:00 +14°C° 0 mm 1 mps 566 mmHg 16%
    03:00 +13°C° 0 mm 1 mps 565 mmHg 15%
    04:00 +12°C° 0 mm 1 mps 565 mmHg 14%
    05:00 +14°C° 0 mm 1 mps 566 mmHg 11%
    06:00 +16°C° 0 mm 1 mps 568 mmHg 8%
    07:00 +19°C° 0 mm 1 mps 569 mmHg 5%
    08:00 +21°C° 0 mm 1 mps 569 mmHg 5%
    09:00 +21°C° 0 mm 2 mps 569 mmHg 4%
    10:00 +24°C° 0 mm 3 mps 569 mmHg 4%
    11:00 +24°C° 0 mm 3 mps 569 mmHg 3%
    12:00 +25°C° 0 mm 3 mps 569 mmHg 3%
    13:00 +26°C° 0 mm 4 mps 569 mmHg 3%
    14:00 +25°C° 0 mm 4 mps 568 mmHg 4%
    15:00 +25°C° 0 mm 4 mps 568 mmHg 5%
    16:00 +24°C° 0 mm 3 mps 568 mmHg 6%
    17:00 +22°C° 0 mm 3 mps 568 mmHg 8%
    18:00 +20°C° 0 mm 2 mps 568 mmHg 11%
    19:00 +18°C° 0 mm 2 mps 568 mmHg 14%
    20:00 +18°C° 0 mm 2 mps 568 mmHg 17%
    21:00 +17°C° 0 mm 2 mps 568 mmHg 20%
    22:00 +16°C° 0 mm 1 mps 568 mmHg 22%
    23:00 +16°C° 0 mm 1 mps 567 mmHg 24%

    24 October, Tuesday

    Time Temperature Precipitation Wind Pressure Humidity
    00:00 +15°C° 0 mm 1 mps 567 mmHg 25%
    01:00 +14°C° 0 mm 1 mps 566 mmHg 26%
    02:00 +14°C° 0 mm 1 mps 566 mmHg 25%
    03:00 +13°C° 0 mm 1 mps 566 mmHg 24%
    04:00 +13°C° 0 mm 1 mps 566 mmHg 23%
    05:00 +14°C° 0 mm 1 mps 567 mmHg 19%
    06:00 +16°C° 0 mm 1 mps 568 mmHg 15%
    07:00 +16°C° 0 mm 0 mps 569 mmHg 11%
    08:00 +20°C° 0 mm 1 mps 569 mmHg 9%
    09:00 +20°C° 0 mm 2 mps 569 mmHg 6%
    10:00 +23°C° 0 mm 2 mps 569 mmHg 4%
    11:00 +24°C° 0 mm 3 mps 569 mmHg 4%
    12:00 +25°C° 0 mm 3 mps 569 mmHg 4%
    13:00 +25°C° 0 mm 3 mps 568 mmHg 3%
    14:00 +25°C° 0 mm 3 mps 568 mmHg 4%
    15:00 +24°C° 0 mm 3 mps 568 mmHg 5%
    16:00 +24°C° 0 mm 3 mps 567 mmHg 6%
    17:00 +21°C° 0 mm 2 mps 567 mmHg 8%
    18:00 +20°C° 0 mm 2 mps 567 mmHg 11%
    19:00 +19°C° 0 mm 1 mps 567 mmHg 13%
    20:00 +18°C° 0 mm 1 mps 567 mmHg 15%
    21:00 +16°C° 0 mm 1 mps 567 mmHg 16%
    22:00 +15°C° 0 mm 1 mps 566 mmHg 18%
    23:00 +15°C° 0 mm 1 mps 566 mmHg 19%
    Show more